Weather History for Estherville, IA

Change the Weather History Date:

Friday, February 22, 2013

  Actual Average Record
Temperature  
Mean Temperature 15 °F 23 °F  
Max Temperature 23 °F 32 °F 59 °F (1977)
Min Temperature 7 °F 14 °F -10 °F (1963)
Degree Days  
Heating Degree Days 50 42  
Month to date heating degree days 972 1002  
Since 1 July heating degree days 5366 5673  
Cooling Degree Days 0 0  
Month to date cooling degree days 0 0  
Year to date cooling degree days 0 0  
Moisture  
Dew Point 14 °F    
Average Humidity 85    
Maximum Humidity 92    
Minimum Humidity 77    
Precipitation  
Precipitation T in 0.01 in 0.30 in (1965)
Month to date precipitation 0.44 0.27  
Sea Level Pressure  
Sea Level Pressure 29.90 in    
Wind  
Wind Speed 12 mph (NNW)    
Max Wind Speed 18 mph    
Max Gust Speed 23 mph    
Visibility 4 miles    
Events Fog , Snow    
T = Trace of Precipitation, MM = Missing Value Source: NWS Daily Summary

Daily Weather History Graph

Daily Weather History Graph

Search for Another Location

Airport:

Trip Planner

Search our weather history database for the weather conditions in past years. The results will help you decide how hot, cold, wet, or windy it might be!

Date:

Astronomy

Feb. 22, 2013 Rise Set
Actual Time 7:06 AM CST 5:59 PM CST
Civil Twilight 6:37 AM CST 6:28 PM CST
Nautical Twilight 6:04 AM CST 7:01 PM CST
Astronomical Twilight 5:31 AM CST 7:34 PM CST
Moon 3:08 PM CST (2/22) 4:55 AM CST (2/22)
Length of Visible Light 11h 50m
Length of Day
10h 53m
Waxing Gibbous, 90% of the Moon is Illuminated
Feb 22
Waxing Gibbous
Feb 25
Full
Mar 4
Last Quarter
Mar 11
New
Mar 19
First Quarter

Hourly Weather History & Observations

Time (CST) Temp. Windchill Dew Point Humidity Pressure Visibility Wind Dir Wind Speed Gust Speed Precip Events Conditions
12:02 AM 15.8 °F -0.2 °F 12.2 °F 86% 29.93 in 1.0 mi NE 17.3 mph - 0.00 in Snow Light Snow
12:15 AM 15.8 °F 0.9 °F 12.2 °F 86% 29.92 in 1.2 mi NE 15.0 mph - 0.00 in Snow Light Snow
12:48 AM 15.8 °F 0.9 °F 12.2 °F 86% 29.93 in 1.2 mi NE 15.0 mph - 0.00 in Snow Light Snow
12:52 AM 16.0 °F 1.1 °F 12.9 °F 88% 29.99 in 1.0 mi NE 15.0 mph - 0.00 in Snow Light Snow
1:03 AM 15.8 °F 0.9 °F 12.2 °F 86% 29.92 in 1.2 mi NE 15.0 mph - 0.00 in Snow Light Snow
1:10 AM 15.8 °F 1.4 °F 12.2 °F 86% 29.92 in 0.8 mi NE 13.8 mph - 0.00 in Snow Light Snow
1:24 AM 15.8 °F 1.4 °F 12.2 °F 86% 29.91 in 0.5 mi NNE 13.8 mph - 0.00 in Fog , Snow Snow
1:42 AM 17.6 °F 3.7 °F 12.2 °F 79% 29.91 in 1.0 mi NNE 13.8 mph - 0.00 in Snow Light Snow
1:52 AM 17.1 °F 3.6 °F 14.0 °F 88% 29.96 in 1.0 mi NNE 12.7 mph - 0.00 in Snow Light Snow
2:07 AM 17.6 °F 4.3 °F 14.0 °F 86% 29.89 in 0.8 mi NNE 12.7 mph - 0.00 in Snow Light Snow
2:32 AM 17.6 °F 3.7 °F 14.0 °F 86% 29.88 in 0.8 mi NNE 13.8 mph - 0.00 in Snow Light Snow
2:52 AM 17.1 °F 2.5 °F 14.0 °F 88% 29.94 in 0.8 mi North 15.0 mph - 0.00 in Snow Light Snow
2:59 AM 17.6 °F 3.2 °F 14.0 °F 86% 29.87 in 1.2 mi North 15.0 mph - 0.00 in Snow Light Snow
3:09 AM 17.6 °F 2.7 °F 14.0 °F 86% 29.86 in 1.8 mi North 16.1 mph - 0.00 in Snow Light Snow
3:52 AM 17.1 °F 2.0 °F 14.0 °F 88% 29.91 in 1.5 mi North 16.1 mph - 0.00 in Snow Light Snow
4:43 AM 17.6 °F 2.7 °F 14.0 °F 86% 29.85 in 1.0 mi North 16.1 mph - 0.00 in Snow Light Snow
4:52 AM 17.1 °F 2.5 °F 14.0 °F 88% 29.91 in 1.0 mi North 15.0 mph - 0.00 in Snow Light Snow
4:59 AM 17.6 °F 3.2 °F 14.0 °F 86% 29.85 in 1.2 mi North 15.0 mph - 0.00 in Snow Light Snow
5:40 AM 17.6 °F 3.7 °F 14.0 °F 86% 29.85 in 2.5 mi North 13.8 mph - 0.00 in Snow Light Snow
5:49 AM 17.6 °F 3.7 °F 14.0 °F 86% 29.85 in 4.0 mi North 13.8 mph - 0.00 in Snow Light Snow
6:45 AM 17.6 °F 3.7 °F 15.8 °F 93% 29.84 in 2.5 mi North 13.8 mph - 0.00 in Snow Light Snow
6:59 AM 17.6 °F 4.3 °F 15.8 °F 93% 29.84 in 1.2 mi North 12.7 mph - 0.00 in Snow Light Snow
7:14 AM 17.6 °F 4.3 °F 15.8 °F 93% 29.84 in 2.5 mi North 12.7 mph - 0.00 in Snow Light Snow
7:25 AM 17.6 °F 3.7 °F 15.8 °F 93% 29.84 in 1.0 mi North 13.8 mph - 0.00 in Snow Light Snow
7:35 AM 17.6 °F 3.7 °F 15.8 °F 93% 29.84 in 0.8 mi North 13.8 mph - 0.00 in Snow Light Snow
7:52 AM 18.0 °F 4.2 °F 15.1 °F 88% 29.91 in 1.0 mi North 13.8 mph - 0.00 in Snow Light Snow
8:23 AM 19.4 °F 6.0 °F 15.8 °F 86% 29.84 in 1.5 mi North 13.8 mph - 0.00 in Snow Light Snow
8:52 AM 19.0 °F 5.0 °F 15.1 °F 85% 29.92 in 1.5 mi North 15.0 mph - 0.00 in Snow Light Snow
9:10 AM 19.4 °F 5.5 °F 15.8 °F 86% 29.85 in 2.5 mi North 15.0 mph - 0.00 in Snow Light Snow
9:22 AM 19.4 °F 6.0 °F 15.8 °F 86% 29.86 in 4.0 mi North 13.8 mph - 0.00 in Snow Light Snow
9:48 AM 19.4 °F 6.6 °F 15.8 °F 86% 29.86 in 5.0 mi North 12.7 mph - 0.00 in Snow Light Snow
9:52 AM 19.9 °F 6.7 °F 15.1 °F 81% 29.92 in 5.0 mi North 13.8 mph - 0.00 in Snow Light Snow
10:04 AM 19.4 °F 6.0 °F 15.8 °F 86% 29.86 in 5.0 mi North 13.8 mph - 0.00 in Snow Light Snow
10:52 AM 21.0 °F 8.1 °F 16.0 °F 81% 29.94 in 6.0 mi NNW 13.8 mph - 0.00 in Snow Light Snow
11:32 AM 21.2 °F 7.3 °F 17.6 °F 86% 29.86 in 4.0 mi North 16.1 mph - 0.00 in Snow Light Snow
11:52 AM 21.9 °F 10.4 °F 17.1 °F 82% 29.93 in 10.0 mi North 11.5 mph - 0.00 in   Scattered Clouds
12:52 PM 21.9 °F 9.8 °F 17.1 °F 82% 29.94 in 10.0 mi NW 12.7 mph - N/A   Overcast
1:44 PM 23.0 °F 11.7 °F 17.6 °F 80% 29.87 in 10.0 mi NNW 11.5 mph - N/A   Overcast
1:52 PM 23.0 °F 12.4 °F 17.1 °F 78% 29.94 in 10.0 mi NW 10.4 mph - N/A   Overcast
2:39 PM 21.2 °F 7.3 °F 17.6 °F 86% 29.88 in 2.0 mi WNW 16.1 mph - 0.00 in Snow Light Snow
2:52 PM 23.0 °F 9.6 °F 18.0 °F 81% 29.94 in 2.5 mi NW 16.1 mph - 0.00 in Snow Light Snow
3:02 PM 23.0 °F 10.6 °F 17.6 °F 80% 29.88 in 3.0 mi WNW 13.8 mph - 0.00 in Snow Light Snow
3:17 PM 21.2 °F 7.8 °F 17.6 °F 86% 29.88 in 3.0 mi WNW 15.0 mph - 0.00 in Snow Light Snow
3:28 PM 21.2 °F 7.3 °F 17.6 °F 86% 29.88 in 2.5 mi WNW 16.1 mph - 0.00 in Snow Light Snow
3:31 PM 23.0 °F 9.2 °F 17.6 °F 80% 29.88 in 3.0 mi WNW 17.3 mph - 0.00 in Snow Light Snow
3:52 PM 23.0 °F 10.6 °F 17.1 °F 78% 29.95 in 2.5 mi NW 13.8 mph - 0.00 in Snow Light Snow
4:02 PM 21.2 °F 7.3 °F 17.6 °F 86% 29.88 in 3.0 mi NW 16.1 mph - 0.00 in Snow Light Snow
4:23 PM 21.2 °F 7.8 °F 15.8 °F 80% 29.89 in 10.0 mi WNW 15.0 mph - 0.00 in   Overcast
4:52 PM 21.9 °F 9.2 °F 16.0 °F 78% 29.96 in 10.0 mi WNW 13.8 mph - 0.00 in   Overcast
5:52 PM 18.0 °F 4.8 °F 12.9 °F 81% 29.97 in 10.0 mi WNW 12.7 mph - N/A   Scattered Clouds
6:52 PM 10.0 °F -0.9 °F 8.1 °F 92% 29.98 in 10.0 mi WNW 6.9 mph - N/A   Clear
7:50 PM 12.2 °F 1.7 °F 10.4 °F 92% 29.91 in 10.0 mi WNW 6.9 mph - N/A   Overcast
7:52 PM 12.9 °F 2.6 °F 10.0 °F 88% 29.98 in 10.0 mi WNW 6.9 mph - N/A   Overcast
8:03 PM 12.2 °F 1.7 °F 10.4 °F 92% 29.91 in 10.0 mi WNW 6.9 mph - N/A   Overcast
8:52 PM 8.1 °F -3.2 °F 6.1 °F 92% 29.98 in 6.0 mi WNW 6.9 mph - 0.00 in Snow Light Snow
9:52 PM 12.0 °F -0.4 °F 9.0 °F 88% 29.97 in 10.0 mi WNW 9.2 mph - N/A   Mostly Cloudy
10:01 PM 12.2 °F -1.0 °F 10.4 °F 92% 29.90 in 10.0 mi WNW 10.4 mph - N/A   Overcast
10:49 PM 14.0 °F 3.9 °F 10.4 °F 86% 29.90 in 10.0 mi West 6.9 mph - N/A   Overcast
10:52 PM 15.1 °F 6.4 °F 10.9 °F 84% 29.97 in 10.0 mi West 5.8 mph - N/A   Overcast
11:21 PM 12.2 °F 4.3 °F 10.4 °F 92% 29.90 in 10.0 mi WNW 4.6 mph - N/A   Overcast
11:52 PM 12.9 °F 3.8 °F 10.0 °F 88% 29.97 in 5.0 mi West 5.8 mph - 0.00 in Snow Light Snow